Weather Roundup
Issued by NWS

Home | Current Version | Previous Version | Text Only | Print | Product List | Glossary On
Versions: 1 2 3 4 5 6 7 8 9 10 11 12 13 14 15 16 17 18 19 20 21 22 23 24 25 26 27 28 29 30 31 32 33 34 35 36 37 38 39 40 41 42 43 44 45 46 47 48 49 50
270
NZUS93 KARX 100710
HRRWXR

CURRENT HOURLY OBSERVATIONS ACROSS
MUCH OF THE UPPER MISSISSIPPI VALLEY
NATIONAL WEATHER SERVICE LA CROSSE WI
100 AM CST WED FEB 10 2016


...SOUTHEAST MINNESOTA...


CITY           SKY/WX    TMP DP  RH WIND       PRES   REMARKS
ROCHESTER      CLOUDY     2  -6  69 NW12      30.08S WCI -15
ROCHESTER/MAYO FAIR       7  -3  64 NW10G16   30.09S WCI  -8
WINONA         PTCLDY    10   0  61 NW5       30.12S WCI   2
AUSTIN         CLOUDY     3   0  85 NW6       30.09S WCI  -8
ALBERT LEA     CLOUDY     7   1  78 NW7       30.10S WCI  -5
DODGE CENTER   CLOUDY     1  -4  78 NW7       30.08S WCI -11
PRESTON        CLOUDY     2  -7  67 NW9       30.06F WCI -13
OWATONNA       CLOUDY     1  -6  71 NW5       30.11S WCI  -8
FARIBAULT        N/A      3  -2  78 NW5       30.12S WCI  -6
$$

...ELSEWHERE IN MINNESOTA...


CITY           SKY/WX    TMP DP  RH WIND       PRES   REMARKS
MINNEAPOLIS    PTCLDY     7  -4  60 N12       30.15S WCI  -8
INTNL FALLS    CLOUDY   -10 -15  78 N5        30.13S HAZE    WCI -22
DULUTH         PTCLDY    -4  -9  79 NW8       30.03F WCI -19
RED WING       PTCLDY     5  -6  61 W5        30.13S WCI  -4
REDWOOD FALLS  CLOUDY    12   3  67 N8        30.16S WCI   0
MANKATO        CLOUDY     7  -2  66 NW7       30.13S WCI  -5
WORTHINGTON    CLOUDY    16   9  73 N8        30.11S WCI   5
FAIRMONT       CLOUDY    10   1  67 NW10      30.12S WCI  -3
$$

...SOUTHWEST WISCONSIN...


CITY           SKY/WX    TMP DP  RH WIND       PRES   REMARKS
LA CROSSE      CLEAR      3  -7  63 NW8       30.09F WCI -10
PRAIRIE DU CHI PTCLDY     7  -4  60 NW5       30.09S WCI  -2
BOSCOBEL       PTCLDY     0  -5  79 CALM      30.07F
LONE ROCK      PTCLDY     7  -3  64 W8        30.05F WCI  -6
PLATTEVILLE    CLEAR      5  -2  72 NW7       30.03S WCI  -7
FORT MC COY    PTCLDY     5  -4  66 NW6       30.05F WCI  -6
CAMP DOUGLAS   CLOUDY     7   0  74 NW9       30.01F WCI  -7
VIROQUA        FAIR       4  -6  64 NW10      30.00F WCI -12
WIS DELLS      CLOUDY     9   0  68 NW6       29.99F WCI  -1
$$

...ELSEWHERE IN WISCONSIN...


CITY           SKY/WX    TMP DP  RH WIND       PRES   REMARKS
MILWAUKEE      MOCLDY    13   4  67 NW10      29.94R WCI   0
MADISON        CLOUDY    10   0  63 NW16      29.99S WCI  -7
GREEN BAY      CLEAR      9  -2  61 NW13      29.94S WCI  -7
EAU CLAIRE     PTCLDY     4  -7  60 NW9       30.09R WCI -10
BLACK RVR FLS  PTSUNNY    3  -7  63 NW3       30.05F
MEDFORD        CLOUDY     5  -2  73 NW8       29.95S WCI  -8
WAUSAU         CLOUDY    10   0  63 NW7       29.94S WCI  -1
WIS RAPIDS     CLOUDY    10  -2  58 N12G21    29.99F WCI  -5
MARSHFIELD     MOCLDY     7  -4  60 NW13      29.96F WCI  -9
RICE LAKE      CLOUDY     3  -5  70 NW7       30.10R WCI -10
$$

...NORTHEAST IOWA...


CITY           SKY/WX    TMP DP  RH WIND       PRES   REMARKS
WATERLOO       CLOUDY     5  -2  72 W8        30.12F WCI  -8
DUBUQUE        CLEAR      8  -2  63 NW14      30.04S WCI  -8
DECORAH        CLOUDY     3  -6  66 W5        30.06S WCI  -6
MASON CITY     CLOUDY     5   0  79 NW14      30.12F WCI -12
CHARLES CITY   CLOUDY     7   0  72 NW9       30.10F WCI  -7
OELWEIN        CLOUDY     3  -4  72 NW10      30.09F WCI -12
$$

...ELSEWHERE IN IOWA...


CITY           SKY/WX    TMP DP  RH WIND       PRES   REMARKS
DES MOINES     CLOUDY    16   7  67 N5        30.16F WCI   9
IOWA CITY      CLEAR     11   2  67 NW9       30.14S WCI  -2
FORT DODGE     CLOUDY     9   3  78 CALM      30.14F
MARSHALLTOWN   PTCLDY     7   3  84 NW10      30.13F WCI  -8
CEDAR RAPIDS   CLOUDY     9   2  73 NW13      30.10S WCI  -7
$$

...NORTHERN ILLINOIS...


CITY           SKY/WX    TMP DP  RH WIND       PRES   REMARKS
CHICAGO-OHARE  MOCLDY    14   5  67 NW16      29.94S WCI  -2
CHICAGO-MIDWAY FLURRIES  16   4  59 NW15G23   29.94S WCI   1
MOLINE         CLEAR     11   1  64 NW15      30.10R WCI  -5
ROCKFORD       CLOUDY    12   1  61 NW15      30.03R WCI  -4
PEORIA         CLEAR     12   3  67 NW8G17    30.08R WCI   0
$$

NOTE: "FAIR" INDICATES FEW OR NO CLOUDS BELOW 12,000 FEET WITH NO
SIGNIFICANT WEATHER AND/OR OBSTRUCTIONS TO VISIBILITY. WIND
SPEEDS ARE IN MILES-PER-HOUR.




USA.gov is the U.S. government's official web portal to all federal, state and local government web resources and services.